{"data":{"norad_id":66852,"intl_designator":"2025-281E","name":"STARLINK-35992","alt_names":[],"object_type":"PAYLOAD","status":"ACTIVE","operator":null,"country":"US","launch_date":"2025-12-02","launch_site_code":"AFETR","launch_vehicle":null,"mission":null,"orbit_class":"UNKNOWN","rcs_meters":null,"size_class":null,"mass_kg":null,"dimensions":null,"purposes":["comms"],"wikipedia_slug":null,"has_3d_model":false,"image_url":null,"decayed_at":null,"tle_current":{"epoch":"2026-05-25T00:54:55.198368Z","epoch_age_seconds":65656,"freshness":"FRESH","line1":"1 66852U 25281E   26145.03813887  .00015317  00000+0  56445-3 0  9994","line2":"2 66852  42.9966 272.1613 0000952 331.1966  28.8833 15.27610380 27860","mean_motion":15.2761038,"eccentricity":9.52e-5,"inclination_deg":42.9966,"raan_deg":272.1613,"arg_perigee_deg":331.1966,"mean_anomaly_deg":28.8833,"bstar":0.00056445,"rev_number":2786,"period_min":94.264874005373,"perigee_km":482.30495264184,"apogee_km":483.61130515438,"semimajor_km":6861.0951288981,"source":"CELESTRAK","updated_at":"2026-05-25T13:38:21.340662Z"}}}